Regional Weather Roundup
Issued by NWS Little Rock, AR

Home | Current Version | Previous Version | Graphics & Text | Print | Product List | Glossary On
Versions: 1 2 3 4 5 6 7 8 9 10 11 12 13 14 15 16 17 18 19 20 21 22 23 24 25 26 27 28 29 30 31 32
000
ASUS44 KLZK 221705
RWRLZK

WEATHER ROUNDUP FOR ARKANSAS
NATIONAL WEATHER SERVICE LITTLE ROCK AR
1200 PM CDT THU JUN 22 2017

NOTE: "FAIR" INDICATES FEW OR NO CLOUDS BELOW 12,000 FEET WITH NO
SIGNIFICANT WEATHER AND/OR OBSTRUCTIONS TO VISIBILITY.

ARZ001-003-010-029-221800-
NORTHWEST ARKANSAS

CITY           SKY/WX    TMP DP  RH WIND       PRES   REMARKS
FAYETTEVILLE   PTSUNNY   80  72  76 SE9       29.79S
FORT SMITH     PTSUNNY   82  74  76 E12       29.74F HX  88
HARRISON       CLOUDY    75  73  93 SE8       29.83F
BENTONVILLE    CLOUDY    79  70  73 CALM      29.81S
ROGERS         CLOUDY    79  71  76 E9        29.81F
SILOAM SPGS    CLOUDY    79  70  73 S5        29.79S
HIGHFILL       CLOUDY    81  72  74 SE10      29.80F HX  85
SPRINGDALE     PTSUNNY   81  72  74 S10       29.81F
$$

ARZ004-005-016-221800-
NORTH CENTRAL ARKANSAS

CITY           SKY/WX    TMP DP  RH WIND       PRES   REMARKS
BATESVILLE     CLOUDY    82  73  74 SE8       29.81F HX  88
FLIPPIN        CLOUDY   N/A N/A N/A SE8       29.78F
MTN HOME       CLOUDY    78  72  81 S9        29.82F
$$

ARZ040-041-221800-
WEST CENTRAL ARKANSAS

CITY           SKY/WX    TMP DP  RH WIND       PRES   REMARKS
MENA           CLOUDY    79  79 100 E5        29.77S
$$

ARZ009-017-025-026-028-221800-
NORTHEAST ARKANSAS

CITY           SKY/WX    TMP DP  RH WIND       PRES   REMARKS
CORNING        CLOUDY    81  77  89 SE10      29.84F HX  88
JONESBORO      CLOUDY    81  76  84 S12       29.82F HX  87
WALNUT RIDGE   CLOUDY    81  72  74 SE14      29.82F
BLYTHEVILLE    CLOUDY    79  76  90 SE13      29.85F
NW BLYTHEVILLE CLOUDY    81  73  78 SE16G26   29.85F HX  85
$$

ARZ022-023-033-042-044-221800-
CENTRAL ARKANSAS

CITY           SKY/WX    TMP DP  RH WIND       PRES   REMARKS
LITTLE ROCK    LGT RAIN  81  76  84 SE10      29.77F HX  87
N LITTLE ROCK    N/A     80  75  83 SE8       29.76F HX  85
JACKSONVILLE   PTSUNNY   82  80  93 SE8       29.77F HX  92
CONWAY           N/A     82  77  83 SE12G21   29.75F HX  91
SEARCY         LGT RAIN  84  77  79 SE10G18   29.80F HX  94
HOT SPRINGS    LGT RAIN  81  32  17 E8        29.75F
RUSSELLVILLE   CLOUDY    79  75  87 E9        29.77F
CLINTON        DRZL/FOG  77  75  94 E6        29.80F VSB 3/4
$$

ARZ036-221800-
EAST ARKANSAS

CITY           SKY/WX    TMP DP  RH WIND       PRES   REMARKS
WEST MEMPHIS   CLOUDY    83  77  82 S12       29.81F HX  92
$$

ARZ050-053-066-070-073-221800-
SOUTHWEST ARKANSAS

CITY           SKY/WX    TMP DP  RH WIND       PRES   REMARKS
ARKADELPHIA    LGT RAIN  81  77  88 CALM      29.73F HX  88
CAMDEN         CLOUDY    86  75  70 SE8       29.70F HX  95
TEXARKANA      RAIN      79  75  87 E8G17     29.69F FOG
EL DORADO      CLOUDY    80  76  87 NE9       29.69F HX  86
DE QUEEN       CLOUDY    79  77  94 NE6       29.70S
$$

ARZ056-057-069-221800-
SOUTHEAST ARKANSAS

CITY           SKY/WX    TMP DP  RH WIND       PRES   REMARKS
PINE BLUFF     RAIN      80  76  87 SE12G24   29.75F FOG     HX  86
STUTTGART      PTSUNNY  N/A N/A N/A SE10      29.78F
MONTICELLO     PTSUNNY   84  74  71 SE13G24   29.74F HX  91

$$






USA.gov is the U.S. government's official web portal to all federal, state and local government web resources and services.